Weather Roundup
Issued by NWS

Home | Current Version | Previous Version | Graphics & Text | Print | Product List | Glossary Off
Versions: 1 2 3 4 5 6 7 8 9 10 11 12 13 14 15 16 17 18 19 20 21 22 23 24 25 26 27 28 29 30 31 32 33 34 35 36 37 38 39 40 41 42 43 44 45 46 47 48 49 50

000
NZUS93 KARX 220510
HRRWXR

CURRENT HOURLY OBSERVATIONS ACROSS
MUCH OF THE UPPER MISSISSIPPI VALLEY
NATIONAL WEATHER SERVICE LA CROSSE WI
1200 AM CDT WED OCT 22 2014


...SOUTHEAST MINNESOTA...


CITY           SKY/WX    TMP DP  RH WIND       PRES   REMARKS
ROCHESTER      FAIR      41  36  82 SE8       30.22R
ROCHESTER/MAYO FAIR      43  35  72 SE8       30.22R
WINONA         CLEAR     41  36  81 SE7       30.25S
AUSTIN         CLEAR     43  37  81 SE8       30.19S
ALBERT LEA     CLEAR     46  37  71 SE10G16   30.18R
DODGE CENTER   PTCLDY    43  37  81 SE14      30.19S
PRESTON        CLEAR     40  35  82 SE8       30.23S WCI  35
OWATONNA       CLEAR     46  37  71 SE8       30.18R
FARIBAULT      CLEAR     46  37  71 SE10      30.18S
$$

...ELSEWHERE IN MINNESOTA...


CITY           SKY/WX    TMP DP  RH WIND       PRES   REMARKS
MINNEAPOLIS    CLEAR     46  37  71 SE10      30.18S
INTNL FALLS    CLEAR     39  34  82 SE10      30.08F WCI  32
DULUTH         CLEAR     37  35  92 SE7       30.19F WCI  32
RED WING       CLEAR     46  37  71 SE8       30.21R
REDWOOD FALLS  CLEAR     50  40  68 SE15      30.08S
MANKATO        CLEAR     46  36  66 SE16      30.14S
WORTHINGTON    CLEAR     52  39  62 S16       30.09S
FAIRMONT       CLEAR     48  36  61 SE15      30.13S
$$

...SOUTHWEST WISCONSIN...


CITY           SKY/WX    TMP DP  RH WIND       PRES   REMARKS
LA CROSSE      CLEAR     42  35  76 E5        30.26S
PRAIRIE DU CHI CLEAR     41  35  79 CALM      30.28R
BOSCOBEL       PTCLDY    32  30  92 CALM      30.29S FOG
LONE ROCK      CLEAR     34  28  79 CALM      30.29R HAZE
PLATTEVILLE    PTCLDY    37  34  90 E9        30.27F WCI  30
FORT MC COY    CLEAR     29  29  97 CALM      30.28S
CAMP DOUGLAS   CLEAR     28  28 100 E2        30.28R FOG
VIROQUA        FAIR      37  35  94 SE5       30.26S WCI  33
WIS DELLS      CLEAR     33  32  96 CALM      30.29R
$$

...ELSEWHERE IN WISCONSIN...


CITY           SKY/WX    TMP DP  RH WIND       PRES   REMARKS
MILWAUKEE      PTCLDY    44  37  76 NE5       30.27S
MADISON        CLEAR     32  31  96 CALM      30.29S FOG
GREEN BAY      CLEAR     33  32  96 NW5       30.31R WCI  29
EAU CLAIRE     CLEAR     41  34  76 SE7       30.24S
BLACK RVR FLS  FAIR      28  28 100 CALM      30.27S
MEDFORD        CLEAR     34  32  94 SE3       30.26S
WAUSAU         PTCLDY    35  31  85 E7        30.28R WCI  29
WIS RAPIDS     CLEAR     32  30  92 E3        30.29S
MARSHFIELD     CLEAR     38  33  82 S3        30.27S
RICE LAKE      CLEAR     40  35  81 SE7       30.24S
$$

...NORTHEAST IOWA...


CITY           SKY/WX    TMP DP  RH WIND       PRES   REMARKS
DECORAH        CLEAR     41  37  87 SE9       30.23S
MASON CITY     CLEAR     43  37  79 SE12      30.20S
CHARLES CITY   CLEAR     43  37  81 SE8       30.23R
OELWEIN        CLEAR     41  37  87 SE10      30.24S
$$

...ELSEWHERE IN IOWA...


CITY           SKY/WX    TMP DP  RH WIND       PRES   REMARKS
DES MOINES     CLEAR     52  40  63 SE10      30.17S
IOWA CITY      CLEAR     44  38  79 E7        30.25S
FORT DODGE     CLEAR     48  37  66 SE12      30.16S
$$

...NORTHERN ILLINOIS...


CITY           SKY/WX    TMP DP  RH WIND       PRES   REMARKS
CHICAGO-OHARE  MOCLDY    49  37  63 E8        30.25S
CHICAGO-MIDWAY MOCLDY    51  39  63 NE8       30.25S
MOLINE         CLEAR     38  35  89 E6        30.26S WCI  33
ROCKFORD       CLEAR     38  34  85 CALM      30.29S
PEORIA         CLEAR     45  37  73 NE7       30.25F
$$

NOTE: "FAIR" INDICATES FEW OR NO CLOUDS BELOW 12,000 FEET WITH NO
SIGNIFICANT WEATHER AND/OR OBSTRUCTIONS TO VISIBILITY. WIND
SPEEDS ARE IN MILES-PER-HOUR.



USA.gov is the U.S. government's official web portal to all federal, state and local government web resources and services.